Location: Central Falls
(41.8900°N, 71.3929°W)
Time: 09:46:08
(UTC+00:00)

Tiros 1 despin weight - Pass Details

Date: 04 December 2023
Orbit: 581 x 625 km, 48.2° (Epoch: 21 February)

Event Time Altitude Azimuth Distance (km) Brightness Sun altitude
Rises 23:44:37 0° 252° (WSW) 2,798 ? -27.2°
Reaches altitude 10° 23:46:54 10° 256° (WSW) 1,896 ? -27.6°
Enters shadow 23:50:03 44° 278° (W) 811 ? -28.2°
